�N����,����,�~����,�C��,���x,�C��,����,���ϕ���,�ő�u�ԕ���,�ő厞����,���˗�,�I�_���x,�n�����x,�ő啗���N��,DTYPE
"23/04/25","00:10",0.0,8.8,64.3,1018.0,306.2,1.8,2.5,325.2,0.00,2.5,13.2,"00:06:48",1
"23/04/25","00:20",0.0,8.8,64.1,1017.8,296.0,2.2,3.4,317.9,0.00,2.4,13.2,"00:14:08",1
"23/04/25","00:30",0.0,8.8,64.2,1017.8,294.2,2.0,2.8,300.8,0.00,2.5,13.2,"00:24:00",1
"23/04/25","00:40",0.0,8.7,64.9,1017.8,282.5,2.0,2.7,268.4,0.00,2.5,12.9,"00:35:44",1
"23/04/25","00:50",0.0,8.6,65.9,1018.0,288.4,2.0,2.8,303.8,0.00,2.6,13.1,"00:47:20",1
"23/04/25","01:00",0.0,8.6,66.4,1018.0,282.0,2.0,2.5,270.6,0.00,2.7,13.1,"00:50:40",1
"23/04/25","01:10",0.0,8.6,66.7,1018.0,287.1,2.2,3.1,307.9,0.00,2.8,12.8,"01:03:36",1
"23/04/25","01:20",0.0,8.6,67.0,1017.8,297.6,2.5,2.9,314.4,0.00,2.9,12.9,"01:14:00",1
"23/04/25","01:30",0.0,8.3,67.7,1017.8,311.7,2.5,3.1,312.0,0.00,2.7,13.0,"01:20:56",1
"23/04/25","01:40",0.0,8.0,69.0,1017.5,319.6,2.7,3.5,322.4,0.00,2.7,13.1,"01:38:32",1
"23/04/25","01:50",0.0,8.1,69.5,1017.8,313.6,3.2,4.2,324.8,0.00,2.9,12.7,"01:48:24",1
"23/04/25","02:00",0.0,8.1,69.2,1017.5,318.6,3.4,5.2,340.2,0.00,2.8,12.9,"01:51:20",1
"23/04/25","02:10",0.0,7.9,69.7,1017.3,313.5,3.5,4.5,325.9,0.00,2.8,12.8,"02:04:08",1
"23/04/25","02:20",0.0,7.9,70.0,1017.5,304.9,3.4,5.5,321.4,0.00,2.8,13.0,"02:10:56",1
"23/04/25","02:30",0.0,7.8,70.3,1017.3,321.6,3.4,4.8,327.1,0.00,2.8,12.7,"02:22:24",1
"23/04/25","02:40",0.0,7.7,70.6,1017.3,313.3,3.1,4.7,318.4,0.00,2.7,12.9,"02:37:44",1
"23/04/25","02:50",0.0,7.6,70.7,1017.1,302.5,3.2,4.1,299.8,0.00,2.7,12.7,"02:40:16",1
"23/04/25","03:00",0.0,7.5,71.1,1017.1,305.8,3.6,5.6,314.9,0.00,2.6,12.5,"02:54:40",1
"23/04/25","03:10",0.0,7.4,71.4,1017.1,316.9,3.7,5.2,313.7,0.00,2.6,12.8,"03:03:52",1
"23/04/25","03:20",0.0,7.4,71.5,1017.1,312.9,3.2,4.7,344.7,0.00,2.6,12.7,"03:19:04",1
"23/04/25","03:30",0.0,7.4,71.6,1016.8,323.1,4.2,5.8,318.5,0.00,2.7,12.7,"03:25:20",1
"23/04/25","03:40",0.0,7.2,72.0,1017.1,327.2,3.7,5.0,322.2,0.00,2.5,12.7,"03:30:58",1
"23/04/25","03:50",0.0,7.2,72.4,1017.1,327.7,3.4,5.6,328.6,0.00,2.6,12.4,"03:40:16",1
"23/04/25","04:00",0.0,7.0,72.9,1016.8,329.0,2.7,4.1,332.3,0.00,2.5,12.5,"03:51:12",1
"23/04/25","04:10",0.0,6.7,73.5,1017.1,326.6,2.6,3.7,337.9,0.00,2.3,12.2,"04:07:00",1
"23/04/25","04:20",0.0,6.6,74.3,1016.8,330.5,3.4,5.1,336.0,0.00,2.4,12.5,"04:12:00",1
"23/04/25","04:30",0.0,6.7,75.0,1016.8,327.3,3.0,4.3,343.0,0.00,2.6,12.1,"04:28:54",1
"23/04/25","04:40",0.0,6.9,75.4,1016.8,316.7,3.6,5.2,331.7,0.00,2.9,12.4,"04:39:20",1
"23/04/25","04:50",0.0,6.9,75.3,1016.8,307.3,3.9,5.4,324.5,0.00,2.9,12.2,"04:48:00",1
"23/04/25","05:00",0.0,6.9,74.8,1016.8,314.4,3.9,5.4,317.9,0.00,2.8,12.4,"04:51:06",1
"23/04/25","05:10",0.0,6.9,74.8,1016.6,316.3,3.9,5.4,329.4,0.00,2.8,12.5,"05:06:24",1
"23/04/25","05:20",0.0,7.1,74.1,1016.6,322.6,3.9,5.6,327.4,0.00,2.8,12.2,"05:10:24",1
"23/04/25","05:30",0.0,7.3,73.3,1016.6,325.2,4.0,5.5,328.5,0.00,2.9,12.1,"05:24:24",1
"23/04/25","05:40",0.0,7.5,72.2,1016.4,315.6,3.5,4.9,309.2,0.00,2.9,12.3,"05:35:12",1
"23/04/25","05:50",0.0,7.5,71.4,1016.6,307.0,3.6,4.9,338.2,0.00,2.7,12.2,"05:49:20",1
"23/04/25","06:00",0.0,7.6,71.0,1016.6,316.1,4.5,6.2,324.3,0.00,2.7,12.4,"05:58:42",1
"23/04/25","06:10",0.0,7.8,70.9,1016.6,323.8,3.4,4.9,318.4,0.00,2.9,12.2,"06:00:16",1
"23/04/25","06:20",0.0,7.8,71.0,1016.6,337.7,3.0,4.5,334.8,0.00,2.9,12.1,"06:10:16",1
"23/04/25","06:30",0.0,7.8,71.6,1016.8,328.7,3.1,4.5,320.7,0.00,3.0,12.2,"06:27:36",1
"23/04/25","06:40",0.0,7.8,71.9,1016.8,328.8,2.5,3.6,344.4,0.00,3.1,12.1,"06:37:44",1
"23/04/25","06:50",0.0,7.9,72.0,1017.1,337.5,2.2,3.3,332.7,0.00,3.2,12.0,"06:49:36",1
"23/04/25","07:00",0.0,8.2,72.0,1017.1,328.8,3.1,4.3,332.5,0.00,3.5,12.2,"06:51:28",1
"23/04/25","07:10",0.0,8.3,71.6,1017.1,311.7,2.8,3.9,311.8,0.01,3.5,12.0,"07:06:00",1
"23/04/25","07:20",0.0,8.4,71.0,1016.6,300.4,2.5,3.6,318.1,0.01,3.5,12.0,"07:12:40",1
"23/04/25","07:30",0.0,8.6,70.8,1016.6,297.6,2.8,3.6,296.1,0.02,3.6,12.1,"07:25:36",1
"23/04/25","07:40",0.0,8.7,70.6,1016.4,301.4,2.8,3.9,345.7,0.02,3.7,12.2,"07:36:16",1
"23/04/25","07:50",0.0,8.8,70.4,1016.6,304.9,2.6,4.1,324.4,0.02,3.8,12.2,"07:44:56",1
"23/04/25","08:00",0.0,9.1,70.0,1016.6,304.1,2.6,4.0,324.9,0.02,4.0,12.1,"07:55:52",1
"23/04/25","08:10",0.0,9.2,70.1,1016.8,304.0,2.3,3.4,314.2,0.01,4.1,12.2,"08:07:44",1
"23/04/25","08:20",0.0,9.3,70.5,1016.6,306.9,2.1,3.5,306.6,0.01,4.3,12.1,"08:18:32",1
"23/04/25","08:30",0.0,9.3,70.3,1016.6,290.8,2.2,2.9,311.0,0.01,4.2,12.1,"08:27:36",1
"23/04/25","08:40",0.0,9.4,70.6,1016.8,304.4,1.7,2.6,300.2,0.01,4.4,12.2,"08:30:56",1
"23/04/25","08:50",0.0,9.6,70.9,1016.6,313.3,2.1,2.8,319.6,0.01,4.6,12.1,"08:49:20",1
"23/04/25","09:00",0.0,9.7,71.6,1016.8,305.0,2.3,2.9,324.9,0.01,4.9,12.1,"08:51:36",1
"23/04/25","09:10",0.0,9.7,72.0,1016.1,295.6,2.0,2.9,296.7,0.01,4.9,12.1,"09:08:56",1
"23/04/25","09:20",0.0,9.9,72.3,1016.4,303.9,1.8,3.1,318.8,0.02,5.2,12.2,"09:13:44",1
"23/04/25","09:30",0.0,10.1,72.2,1016.6,287.7,1.6,2.1,269.8,0.04,5.4,12.3,"09:21:52",1
"23/04/25","09:40",0.0,10.2,72.5,1016.4,307.5,1.8,2.6,319.7,0.04,5.5,12.1,"09:37:54",1
"23/04/25","09:50",0.0,10.5,73.4,1015.9,322.7,2.1,2.9,323.0,0.04,6.0,12.2,"09:44:32",1
"23/04/25","10:00",0.0,10.8,74.6,1016.1,295.4,1.8,2.7,312.6,0.05,6.5,12.4,"09:51:36",1
"23/04/25","10:10",0.0,11.1,76.0,1015.6,310.8,1.8,3.1,337.1,0.06,7.1,12.3,"10:06:56",1
"23/04/25","10:20",0.0,11.1,77.6,1015.4,293.8,1.7,2.1,296.3,0.09,7.4,12.1,"10:11:28",1
"23/04/25","10:30",0.0,11.4,79.1,1015.9,300.9,1.8,2.7,316.2,0.10,8.0,12.3,"10:22:00",1
"23/04/25","10:40",0.0,12.1,80.1,1015.6,262.0,0.8,1.7,295.8,0.11,8.8,12.2,"10:30:08",1
"23/04/25","10:50",0.0,12.0,78.4,1015.9,251.3,1.6,2.8,238.4,0.11,8.4,12.3,"10:47:32",1
"23/04/25","11:00",0.0,12.5,75.4,1015.9,269.9,1.0,2.6,254.3,0.10,8.3,12.4,"10:57:54",1
"23/04/25","11:10",0.0,12.9,72.0,1015.9,304.3,1.2,1.8,302.7,0.08,8.0,12.3,"11:01:32",1
"23/04/25","11:20",0.0,13.2,70.0,1015.9,301.2,0.7,1.4,322.8,0.06,7.9,12.3,"11:11:16",1
"23/04/25","11:30",0.0,13.2,69.0,1015.9,162.1,0.8,2.6,111.8,0.06,7.7,12.5,"11:28:52",1
"23/04/25","11:40",0.0,13.3,68.2,1016.1,102.8,1.1,2.7,112.9,0.04,7.6,12.5,"11:31:04",1
"23/04/25","11:50",0.0,13.4,67.8,1015.6,70.4,0.7,1.4,17.4,0.03,7.6,12.6,"11:46:48",1
"23/04/25","12:00",0.0,13.4,68.6,1015.4,99.7,1.0,2.1,118.5,0.03,7.8,12.4,"11:54:40",1
"23/04/25","12:10",0.0,13.4,70.8,1014.5,73.1,0.7,1.9,121.6,0.03,8.3,12.7,"12:09:44",1
"23/04/25","12:20",0.0,13.3,72.6,1014.9,102.7,1.5,3.7,112.4,0.04,8.5,12.7,"12:11:28",1
"23/04/25","12:30",0.0,13.3,73.8,1014.9,98.0,1.3,3.9,102.5,0.03,8.8,12.7,"12:23:28",1
"23/04/25","12:40",0.0,13.3,74.8,1014.5,89.8,1.7,3.6,103.0,0.06,9.0,12.7,"12:32:00",1
"23/04/25","12:50",0.0,13.5,75.6,1014.0,105.3,1.3,3.3,42.3,0.08,9.3,12.6,"12:45:12",1
"23/04/25","13:00",0.0,13.6,76.9,1014.2,120.3,1.8,4.7,113.4,0.05,9.7,12.8,"12:52:56",1
"23/04/25","13:10",0.2,13.5,78.4,1013.8,102.1,1.3,4.1,121.8,0.05,9.9,12.9,"13:09:52",1
"23/04/25","13:20",0.0,13.6,79.8,1013.5,109.6,1.5,3.7,109.0,0.07,10.2,12.8,"13:13:12",1
"23/04/25","13:30",0.0,13.6,80.6,1013.5,94.1,1.3,3.7,118.6,0.06,10.4,12.8,"13:22:16",1
"23/04/25","13:40",0.0,13.6,81.5,1013.0,106.6,1.6,4.8,114.8,0.05,10.5,12.8,"13:32:16",1
"23/04/25","13:50",0.0,13.7,82.0,1012.8,99.7,1.5,3.4,113.0,0.06,10.7,13.1,"13:45:44",1
"23/04/25","14:00",0.0,13.9,82.5,1012.6,60.0,1.1,4.4,15.2,0.07,11.0,12.9,"13:54:16",1
"23/04/25","14:10",0.0,13.7,82.2,1012.8,100.5,2.0,5.5,116.3,0.06,10.8,13.0,"14:06:44",1
"23/04/25","14:20",0.0,13.7,82.0,1012.8,116.3,2.5,5.2,124.9,0.05,10.7,12.9,"14:15:14",1
"23/04/25","14:30",0.0,13.8,82.1,1013.0,125.3,1.6,4.7,118.6,0.03,10.8,13.0,"14:26:48",1
"23/04/25","14:40",0.0,13.8,82.5,1012.6,137.7,2.1,4.4,126.9,0.02,10.9,13.1,"14:33:44",1
"23/04/25","14:50",0.0,13.8,83.4,1012.8,120.5,1.7,3.4,75.2,0.04,11.1,13.0,"14:42:56",1
"23/04/25","15:00",0.0,13.8,84.5,1012.3,104.6,1.8,4.8,116.8,0.02,11.3,13.0,"14:53:04",1
"23/04/25","15:10",0.4,13.7,85.5,1012.1,100.2,1.8,3.7,123.9,0.01,11.4,13.1,"15:03:12",1
"23/04/25","15:20",0.0,13.6,86.4,1012.1,95.4,1.8,6.0,111.0,0.02,11.4,13.3,"15:15:36",1
"23/04/25","15:30",0.2,13.5,87.3,1011.9,81.2,1.2,3.2,352.9,0.02,11.5,13.1,"15:24:00",1
"23/04/25","15:40",0.0,13.5,88.2,1011.6,100.7,1.7,3.7,104.2,0.02,11.6,13.0,"15:32:24",1
"23/04/25","15:50",0.2,13.6,89.0,1012.1,107.0,1.3,4.0,121.9,0.04,11.9,13.1,"15:48:48",1
"23/04/25","16:00",0.2,13.7,89.5,1011.6,118.6,1.3,4.3,129.7,0.03,12.0,13.3,"15:55:28",1
"23/04/25","16:10",0.2,13.7,90.0,1011.9,133.0,1.1,2.5,127.9,0.02,12.1,13.0,"16:03:20",1
"23/04/25","16:20",0.2,13.7,90.3,1012.1,194.1,0.5,1.2,125.0,0.01,12.2,13.2,"16:10:24",1
"23/04/25","16:30",0.4,13.7,90.7,1011.9,93.1,0.6,2.2,337.5,0.01,12.2,13.0,"16:20:48",1
"23/04/25","16:40",0.2,13.7,91.1,1011.4,123.9,0.6,2.0,105.5,0.01,12.3,13.3,"16:33:04",1
"23/04/25","16:50",0.2,13.8,91.4,1011.6,108.2,0.7,1.4,115.8,0.01,12.5,13.2,"16:40:40",1
"23/04/25","17:00",0.6,13.7,91.8,1011.6,131.4,0.8,2.0,119.0,0.00,12.4,13.2,"16:54:48",1
"23/04/25","17:10",0.4,13.7,92.0,1011.4,121.2,1.0,2.4,121.4,0.01,12.5,13.2,"17:02:24",1
"23/04/25","17:20",0.2,13.8,92.3,1011.2,124.9,1.5,2.9,127.0,0.02,12.6,13.2,"17:16:00",1
"23/04/25","17:30",0.2,13.8,92.4,1010.9,126.5,1.7,3.9,148.9,0.01,12.6,13.2,"17:26:48",1
"23/04/25","17:40",0.4,13.9,92.6,1011.2,122.7,1.6,3.5,120.0,0.01,12.8,13.2,"17:36:32",1
"23/04/25","17:50",0.0,13.8,92.6,1010.4,115.2,1.8,4.4,120.9,0.00,12.7,13.2,"17:49:28",1
"23/04/25","18:00",0.2,13.8,92.7,1010.4,108.7,2.1,5.0,116.5,0.00,12.7,13.2,"17:54:24",1
"23/04/25","18:10",0.2,13.9,92.7,1010.4,118.4,1.8,3.9,100.6,0.00,12.8,13.2,"18:05:04",1
"23/04/25","18:20",0.4,13.8,92.7,1010.4,111.9,2.5,5.7,122.9,0.00,12.7,13.2,"18:16:40",1
"23/04/25","18:30",0.0,13.8,92.6,1010.7,108.9,2.2,5.1,116.2,0.00,12.7,13.4,"18:23:28",1
"23/04/25","18:40",0.2,13.9,92.6,1010.4,108.4,2.0,4.5,119.5,0.00,12.8,13.5,"18:37:36",1
"23/04/25","18:50",0.0,13.8,92.6,1010.4,112.0,1.8,3.6,133.0,0.00,12.7,13.4,"18:47:12",1
"23/04/25","19:00",0.0,13.8,92.6,1010.2,86.6,1.2,3.2,97.0,0.00,12.7,13.5,"18:51:20",1
"23/04/25","19:10",0.0,13.7,92.6,1010.7,83.6,1.0,2.1,104.7,0.00,12.6,13.5,"19:07:20",1
"23/04/25","19:20",0.0,13.7,92.6,1010.2,98.7,1.3,3.5,124.3,0.00,12.6,13.3,"19:13:04",1
"23/04/25","19:30",0.2,13.7,92.6,1010.7,100.6,1.1,2.5,101.4,0.00,12.6,13.4,"19:24:16",1
"23/04/25","19:40",0.0,13.7,92.6,1010.7,109.9,1.2,2.8,111.6,0.00,12.6,13.3,"19:31:36",1
"23/04/25","19:50",0.2,13.8,92.5,1010.2,95.0,1.5,5.2,117.4,0.00,12.6,13.6,"19:45:12",1
"23/04/25","20:00",0.2,13.7,92.5,1010.2,107.0,1.1,2.6,82.9,0.00,12.5,13.2,"19:52:00",1
"23/04/25","20:10",0.6,13.7,92.7,1010.2,98.6,1.3,3.9,104.4,0.00,12.6,13.3,"20:09:28",1
"23/04/25","20:20",0.8,13.7,92.8,1010.2,124.3,1.6,4.0,124.4,0.00,12.6,13.3,"20:15:14",1
"23/04/25","20:30",0.8,13.7,92.9,1009.7,106.0,1.2,2.7,121.6,0.00,12.6,13.5,"20:28:16",1
"23/04/25","20:40",0.4,13.7,93.1,1009.7,112.4,1.1,2.8,131.1,0.00,12.6,13.5,"20:35:12",1
"23/04/25","20:50",0.0,13.7,93.3,1009.7,120.4,1.2,2.7,118.7,0.00,12.7,13.2,"20:47:04",1
"23/04/25","21:00",0.0,13.7,93.5,1010.0,121.6,1.1,2.1,106.5,0.00,12.7,13.4,"20:50:32",1
"23/04/25","21:10",0.2,13.7,93.6,1010.0,89.7,0.7,1.7,110.7,0.00,12.7,13.4,"21:05:18",1
"23/04/25","21:20",0.0,13.7,93.8,1009.5,35.8,0.6,2.0,127.5,0.00,12.8,13.3,"21:15:22",1
"23/04/25","21:30",0.0,13.8,93.9,1009.7,66.8,0.6,1.4,32.7,0.00,12.9,13.5,"21:20:08",1
"23/04/25","21:40",0.2,13.8,94.0,1009.7,17.4,0.7,2.1,127.7,0.00,12.9,13.3,"21:35:16",1
"23/04/25","21:50",0.0,13.9,94.1,1010.0,11.4,0.8,2.0,9.8,0.00,13.0,13.4,"21:45:06",1
"23/04/25","22:00",0.0,14.0,94.2,1010.0,100.3,0.7,2.2,9.1,0.00,13.1,13.3,"21:53:50",1
"23/04/25","22:10",0.0,14.0,94.2,1010.2,36.5,0.6,1.2,120.2,0.00,13.1,13.3,"22:01:30",1
"23/04/25","22:20",0.2,14.0,94.2,1010.0,42.5,0.5,1.3,63.8,0.00,13.1,13.3,"22:19:56",1
"23/04/25","22:30",0.8,14.0,94.3,1009.7,71.9,0.6,1.6,25.3,0.00,13.1,13.2,"22:26:04",1
"23/04/25","22:40",0.4,14.1,94.5,1009.5,111.2,1.1,2.9,120.6,0.00,13.3,13.5,"22:36:40",1
"23/04/25","22:50",0.6,14.1,94.6,1009.0,94.2,1.2,2.5,97.8,0.00,13.3,13.4,"22:40:48",1
"23/04/25","23:00",0.4,14.1,94.7,1008.8,115.9,1.6,3.4,146.2,0.00,13.3,13.4,"22:50:02",1
"23/04/25","23:10",0.4,14.2,94.8,1008.6,110.5,2.0,4.0,120.4,0.00,13.4,13.6,"23:00:26",1
"23/04/25","23:20",0.2,14.2,94.8,1008.6,116.6,1.3,2.2,103.8,0.00,13.4,13.5,"23:10:34",1
"23/04/25","23:30",0.2,14.2,94.9,1008.1,145.2,1.0,1.7,116.4,0.00,13.4,13.3,"23:26:44",1
"23/04/25","23:40",0.2,14.3,95.0,1007.6,124.1,1.1,1.9,132.4,0.00,13.6,13.4,"23:35:22",1
"23/04/25","23:50",0.4,14.3,95.1,1007.1,117.7,1.7,3.6,112.0,0.00,13.6,13.2,"23:42:18",1
"23/04/25","24:00",0.2,14.4,95.1,1007.1,111.7,1.5,2.8,118.1,0.00,13.7,13.4,"23:58:16",1
